Location: Pedholt
(56.0260°N, 10.2097°E)
Time: 06:09:10
(UTC+00:00)

SR - Pass Details

Date: 29 July 2021
Orbit: 581 x 874 km, 66.7° (Epoch: 24 September)

Event Time Altitude Azimuth Distance (km) Brightness Sun altitude
Rises 07:58:32 0° 241° (WSW) 3,415 ? 36.4°
Reaches altitude 10° 08:01:07 10° 246° (WSW) 2,454 ? 36.7°
Maximum altitude 08:06:41 54° 324° (NW) 969 ? 37.4°
Drops below altitude 10° 08:11:52 10° 42° (NE) 2,290 ? 38.1°
Sets 08:14:13 0° 47° (NE) 3,170 ? 38.4°
